SRQ6064 RPVM-RPVV

Flight info

Callsign SRQ6064
Flight time N/A
Altitude 16000
Route PARAO4P PARAO W6A ROX DCT CT
Aircraft AT76/M-SDFGIRY/S

Departure

Time 2026-05-04 07:01
Airport Mactan Cebu International Airport (RPVM)

Arrival

Time N/A
Airport Francisco B. Reyes (Busuanga) Airport (RPVV)
Time Latitude Longitude Altitude Speed Heading
2026-05-04 06:37 10.31729 123.98139 35 ft 0 kts 316°
2026-05-04 06:52 10.31722 123.98147 35 ft 4 kts 316°
2026-05-04 06:53 10.31705 123.98162 35 ft 3 kts 314°
2026-05-04 06:53 10.31698 123.98179 35 ft 4 kts 235°
2026-05-04 06:53 10.31697 123.98179 35 ft 4 kts 226°
2026-05-04 06:53 10.31678 123.98159 35 ft 4 kts 225°
2026-05-04 06:54 10.31672 123.98153 35 ft 0 kts 225°
2026-05-04 06:56 10.31648 123.98129 35 ft 9 kts 225°
2026-05-04 06:57 10.31131 123.97913 35 ft 16 kts 225°
2026-05-04 06:58 10.31047 123.97829 34 ft 18 kts 224°
2026-05-04 06:58 10.30957 123.97740 35 ft 19 kts 224°
2026-05-04 06:58 10.30860 123.97643 35 ft 20 kts 225°
2026-05-04 06:58 10.30759 123.97542 35 ft 20 kts 225°
2026-05-04 06:59 10.30658 123.97442 36 ft 20 kts 224°
2026-05-04 06:59 10.30556 123.97341 35 ft 20 kts 224°
2026-05-04 06:59 10.30457 123.97239 36 ft 20 kts 226°
2026-05-04 06:59 10.30357 123.97162 35 ft 11 kts 177°
2026-05-04 07:01 10.32903 123.99785 1372 ft 141 kts 43°
2026-05-04 07:01 10.33700 124.00539 1495 ft 168 kts 44°
2026-05-04 07:02 10.34565 124.01334 2037 ft 163 kts 43°
2026-05-04 07:02 10.35424 124.02122 2139 ft 177 kts 43°
2026-05-04 07:02 10.36360 124.02993 2328 ft 183 kts 46°
2026-05-04 07:02 10.37380 124.03755 2558 ft 187 kts 16°
2026-05-04 07:03 10.38658 124.03606 2825 ft 193 kts 334°
2026-05-04 07:03 10.39720 124.02767 3056 ft 195 kts 320°
2026-05-04 07:03 10.40378 124.01568 3266 ft 199 kts 282°
2026-05-04 07:03 10.40619 124.00170 3491 ft 202 kts 282°
2026-05-04 07:04 10.40888 123.98773 3858 ft 201 kts 283°
2026-05-04 07:04 10.41162 123.97375 4161 ft 203 kts 283°
2026-05-04 07:04 10.41426 123.95971 4469 ft 202 kts 281°
2026-05-04 07:04 10.41682 123.94567 4733 ft 203 kts 281°
2026-05-04 07:05 10.41682 123.93136 4961 ft 203 kts 264°
2026-05-04 07:05 10.41981 123.91758 5133 ft 203 kts 306°
2026-05-04 07:05 10.42832 123.90617 5381 ft 204 kts 311°
2026-05-04 07:05 10.43760 123.89549 5638 ft 204 kts 315°
2026-05-04 07:06 10.45764 123.87483 6159 ft 206 kts 317°
2026-05-04 07:06 10.46784 123.86455 6411 ft 207 kts 317°
2026-05-04 07:06 10.47808 123.85421 6637 ft 207 kts 317°
2026-05-04 07:07 10.48832 123.84385 6852 ft 209 kts 317°
2026-05-04 07:08 10.56145 123.77000 8583 ft 214 kts 316°
2026-05-04 07:09 10.57202 123.75929 8806 ft 215 kts 317°
2026-05-04 07:09 10.58264 123.74856 9022 ft 215 kts 317°
2026-05-04 07:09 10.59325 123.73784 9240 ft 216 kts 316°
2026-05-04 07:09 10.60392 123.72710 9467 ft 216 kts 316°
2026-05-04 07:10 10.61457 123.71635 9667 ft 216 kts 316°
2026-05-04 07:10 10.62523 123.70558 9837 ft 217 kts 316°
2026-05-04 07:12 10.69803 123.63194 10856 ft 225 kts 317°
2026-05-04 07:12 10.70918 123.62066 11016 ft 226 kts 316°
2026-05-04 07:12 10.72036 123.60936 11161 ft 227 kts 317°
2026-05-04 07:12 10.73157 123.59803 11309 ft 228 kts 316°
2026-05-04 07:13 10.74282 123.58668 11459 ft 228 kts 317°
2026-05-04 07:13 10.75412 123.57526 11598 ft 229 kts 317°
2026-05-04 07:13 10.76544 123.56382 11742 ft 230 kts 317°
2026-05-04 07:14 10.81136 123.51729 12211 ft 237 kts 317°
2026-05-04 07:14 10.82307 123.50542 12350 ft 238 kts 317°
2026-05-04 07:15 10.83481 123.49356 12495 ft 239 kts 317°
2026-05-04 07:15 10.84656 123.48162 12613 ft 239 kts 317°
2026-05-04 07:15 10.85837 123.46968 12752 ft 240 kts 317°
2026-05-04 07:15 10.87023 123.45769 12891 ft 240 kts 317°
2026-05-04 07:16 10.88210 123.44568 13000 ft 241 kts 317°
2026-05-04 07:16 10.89397 123.43360 13123 ft 242 kts 317°
2026-05-04 07:16 10.90591 123.42151 13231 ft 242 kts 317°
2026-05-04 07:16 10.91784 123.40939 13334 ft 242 kts 317°
2026-05-04 07:17 10.93000 123.39752 13434 ft 243 kts 319°
2026-05-04 07:17 10.94235 123.38568 13527 ft 244 kts 319°
2026-05-04 07:17 10.95470 123.37384 13615 ft 245 kts 319°
2026-05-04 07:17 10.96710 123.36193 13706 ft 245 kts 318°
2026-05-04 07:18 10.97948 123.35002 13786 ft 245 kts 319°
2026-05-04 07:18 10.99185 123.33813 13842 ft 246 kts 318°
2026-05-04 07:18 11.00440 123.32605 13856 ft 250 kts 318°
2026-05-04 07:18 11.01708 123.31383 13931 ft 251 kts 318°
2026-05-04 07:19 11.02979 123.30164 14012 ft 251 kts 319°
2026-05-04 07:19 11.04253 123.28943 14090 ft 251 kts 319°
2026-05-04 07:19 11.05526 123.27717 14171 ft 252 kts 318°
2026-05-04 07:19 11.06779 123.26510 14241 ft 252 kts 318°
2026-05-04 07:20 11.08056 123.25281 14322 ft 252 kts 319°
2026-05-04 07:20 11.09332 123.24054 14397 ft 252 kts 319°
2026-05-04 07:20 11.10608 123.22827 14474 ft 252 kts 319°
2026-05-04 07:20 11.11882 123.21600 14541 ft 253 kts 318°
2026-05-04 07:22 11.20854 123.12964 14989 ft 254 kts 318°
2026-05-04 07:22 11.22139 123.11725 15046 ft 255 kts 318°
2026-05-04 07:23 11.23423 123.10485 15107 ft 254 kts 318°
2026-05-04 07:23 11.24711 123.09243 15170 ft 255 kts 318°
2026-05-04 07:23 11.25998 123.08003 15244 ft 255 kts 318°
2026-05-04 07:23 11.27271 123.06777 15309 ft 255 kts 318°
2026-05-04 07:24 11.28559 123.05535 15364 ft 255 kts 318°
2026-05-04 07:24 11.29848 123.04292 15424 ft 255 kts 318°
2026-05-04 07:24 11.31141 123.03045 15495 ft 255 kts 318°
2026-05-04 07:24 11.32430 123.01802 15549 ft 256 kts 318°
2026-05-04 07:25 11.33726 123.00553 15622 ft 255 kts 318°
2026-05-04 07:26 11.42754 122.91842 15876 ft 260 kts 318°
2026-05-04 07:27 11.44070 122.90571 15868 ft 261 kts 318°
2026-05-04 07:27 11.45384 122.89301 15867 ft 261 kts 318°
2026-05-04 07:27 11.46707 122.88024 15875 ft 262 kts 318°
2026-05-04 07:27 11.48030 122.86744 15871 ft 263 kts 318°
2026-05-04 07:28 11.49358 122.85462 15881 ft 263 kts 318°
2026-05-04 07:28 11.50671 122.84193 15873 ft 264 kts 318°
2026-05-04 07:28 11.52003 122.82907 15869 ft 264 kts 318°
2026-05-04 07:28 11.53339 122.81616 15872 ft 264 kts 318°
2026-05-04 07:29 11.54671 122.80328 15872 ft 264 kts 318°
2026-05-04 07:29 11.56008 122.79036 15874 ft 264 kts 318°
2026-05-04 07:29 11.57337 122.77751 15874 ft 264 kts 318°
2026-05-04 07:29 11.58669 122.76464 15877 ft 264 kts 318°
2026-05-04 07:30 11.59924 122.75096 15891 ft 264 kts 304°
2026-05-04 07:30 11.60732 122.73414 15881 ft 265 kts 292°
2026-05-04 07:30 11.61382 122.71656 15874 ft 265 kts 290°
2026-05-04 07:30 11.62012 122.69909 15883 ft 265 kts 291°
2026-05-04 07:31 11.62686 122.68160 15882 ft 265 kts 293°
2026-05-04 07:31 11.63403 122.66431 15884 ft 265 kts 294°
2026-05-04 07:33 11.68419 122.54309 15891 ft 265 kts 294°
2026-05-04 07:33 11.69135 122.52572 15886 ft 265 kts 294°
2026-05-04 07:33 11.69848 122.50844 15880 ft 265 kts 293°
2026-05-04 07:33 11.70564 122.49107 15893 ft 265 kts 293°
2026-05-04 07:34 11.71269 122.47397 15889 ft 265 kts 293°
2026-05-04 07:34 11.71993 122.45643 15892 ft 265 kts 293°
2026-05-04 07:34 11.72699 122.43927 15887 ft 265 kts 293°
2026-05-04 07:34 11.73413 122.42196 15888 ft 265 kts 293°
2026-05-04 07:35 11.74129 122.40458 15888 ft 265 kts 294°
2026-05-04 07:35 11.74842 122.38725 15886 ft 265 kts 294°
2026-05-04 07:35 11.75557 122.36991 15887 ft 265 kts 294°
2026-05-04 07:35 11.76272 122.35255 15883 ft 265 kts 294°
2026-05-04 07:36 11.76984 122.33526 15890 ft 265 kts 294°
2026-05-04 07:36 11.77697 122.31792 15882 ft 265 kts 294°
2026-05-04 07:38 11.82690 122.19658 15879 ft 266 kts 294°
2026-05-04 07:38 11.83404 122.17915 15888 ft 266 kts 294°
2026-05-04 07:38 11.84121 122.16174 15885 ft 266 kts 294°
2026-05-04 07:38 11.84838 122.14430 15882 ft 266 kts 294°
2026-05-04 07:39 11.85554 122.12686 15876 ft 266 kts 294°
2026-05-04 07:39 11.86270 122.10945 15881 ft 266 kts 294°
2026-05-04 07:39 11.86983 122.09202 15878 ft 266 kts 294°
2026-05-04 07:39 11.87699 122.07463 15866 ft 266 kts 294°
2026-05-04 07:40 11.88406 122.05741 15865 ft 266 kts 294°
2026-05-04 07:40 11.89116 122.04004 15873 ft 266 kts 294°
2026-05-04 07:40 11.89833 122.02260 15870 ft 266 kts 294°
2026-05-04 07:40 11.90544 122.00523 15875 ft 266 kts 294°
2026-05-04 07:41 11.91262 121.98781 15879 ft 266 kts 294°
2026-05-04 07:41 11.91979 121.97034 15873 ft 267 kts 294°
2026-05-04 07:41 11.92696 121.95286 15878 ft 268 kts 294°